Regional Weather Roundup
Issued by NWS

Home | Current Version | Previous Version | Graphics & Text | Print | Product List | Glossary On
Versions: 1 2 3 4 5 6 7 8 9 10 11 12 13 14 15 16 17 18 19 20 21 22 23 24 25 26 27 28 29 30 31 32 33 34 35 36 37 38 39 40 41 42 43 44 45 46 47 48 49 50
000
ASUS43 KLMK 271010
RWRKY
KENTUCKY REGIONAL WEATHER ROUNDUP
NATIONAL WEATHER SERVICE LOUISVILLE KY
500 AM EST FRI FEB 27 2015

NOTE "FAIR" INDICATES FEW OR NO CLOUDS BELOW 12,000 FEET
WITH NO SIGNIFICANT WEATHER AND/OR OBSTRUCTIONS TO VISIBILITY.

KYZ001>023-026-027-061>063-070>075-271100-
WESTERN AND SOUTH CENTRAL KENTUCKY

CITY           SKY/WX    TMP DP  RH WIND       PRES   REMARKS
PADUCAH        PTCLDY    15   7  70 N7        30.52R WCI   5
HENDERSON      CLOUDY    16   9  73 N3        30.52R
OWENSBORO      CLEAR     15   5  64 N6        30.51R WCI   6
HOPKINSVILLE   CLEAR     16   9  76 NW6       30.48R WCI   7
BOWLING GREEN  CLOUDY    20   8  60 NE10      30.47R WCI   9
GLASGOW        CLEAR     16   9  72 NE3       30.44R
$$

KYZ024-025-028>034-038-045-046-053-271100-
NORTH CENTRAL KENTUCKY

CITY           SKY/WX    TMP DP  RH WIND       PRES   REMARKS
LOUISVILLE/SDF PTCLDY    16   8  71 N10       30.47R WCI   4
LOUISVILLE/LOU PTCLDY    15   6  67 N6        30.47R WCI   6
FORT KNOX      CLOUDY    16  10  75 N6        30.44R WCI   8
$$

KYZ035>037-039>044-047>052-055>060-089>105-271100-
NORTHEAST KENTUCKY

CITY           SKY/WX    TMP DP  RH WIND       PRES   REMARKS
LEXINGTON      CLEAR      9   5  84 CALM      30.42R
COVINGTON      FLURRIES  11   6  81 W6        30.43R WCI   1
FRANKFORT      CLOUDY     9   4  80 CALM      30.44R
$$

KYZ054-064>069-076>088-106>120-271100-
SOUTHEAST KENTUCKY

CITY           SKY/WX    TMP DP  RH WIND       PRES   REMARKS
JACKSON        CLOUDY    15   8  73 VRB6      30.34R WCI   6
LONDON         CLOUDY    18   9  68 N9        30.36R WCI   7
SOMERSET       FLURRIES  18  10  73 N8        30.42R WCI   7
MIDDLESBORO    FLURRIES  24  19  82 NW12      30.33R WCI  13
MONTICELLO     LGT SNOW  19  14  81 NW9       30.43R WCI   8
$$



USA.gov is the U.S. government's official web portal to all federal, state and local government web resources and services.